Pagina principale
METAR-TAF:

METAR-TAF

Aeroporti :

Harriman-and-West Airport

North Adams, Massachusetts, Stati Uniti

latitudine: 42-41-50N, longitudine: 073-10-13W, altezza: 199 m

Osservazione

Il bollettino è stato emesso 34 minuti fa, alle 00:52 UTC
Vento 3 kt da nord
Temperature 3°C
Umidità 93%
Pressione 1016 hPa
Visibilità: 16.1 km
Cielo sereno

METAR: KAQW 170052Z AUTO 35003KT 10SM CLR 03/02 A3000 RMK AO2 SLP165 T00330022

Ora: 21:26 (01:26 UTC)


TAF: mancante

Osservazioni e previsioni meteorologiche di più di 4000 aeroporti (messaggi METAR e TAF).

Le stazioni disponibili sono rappresentate dai dischi gialli e rossi sulla carta.

Puntare il mouse per vedere il nome della stazione.

Clicca sopra per visualizzare le osservazioni e previsioni meteorologiche.

Per cambiare la mappa : fare clic sui pulsanti verdi con una croce nera per ingrandire, il pulsante verde con un trattino per diminuire, o sulla freccia verde per le mappe adiacenti.


METAR-TAF: